Wind_Speed
25 23 21 21 22 20 18 18 18 19 19 19 18 18 20 22 24 25 26 26 25 25 24 25 26 27 27 27 27 28 28 29 27 24 26 24 23 22 22 20 20 20 22
23 23 23 22 20 19 19 19 19 19 20 19 19 20 22 24 25 26 27 26 25 25 25 26 27 27 28 29 30 30 30 31 30 28 25 24 24 23 22 21 22 22 22
23 23 22 20 19 19 18 20 20 20 19 19 20 22 23 25 26 27 26 25 25 25 26 27 27 27 28 29 29 30 29 28 28 27 26 25 24 23 23 23 22 22 23
22 23 23 22 20 20 21 20 18 18 19 19 20 22 25 26 27 25 25 25 25 26 26 26 27 28 28 29 30 30 29 28 27 27 27 26 26 26 24 22 23 24 26
26 26 23 22 22 22 20 18 17 17 19 21 23 25 26 26 24 24 24 25 25 26 27 27 28 29 30 31 31 31 29 28 27 26 26 26 27 29 30 27 26 24 25
27 27 25 23 22 20 18 18 18 20 23 25 25 26 24 23 24 25 24 25 26 26 27 27 28 29 29 29 29 28 27 27 28 28 28 28 29 29 31 31 28 29 24
26 24 23 21 19 19 19 20 22 24 26 26 24 23 24 24 24 25 25 26 26 27 27 28 28 29 29 28 27 27 27 28 28 29 29 30 30 31 32 34 34 33 30
20 20 20 20 20 20 22 24 24 24 22 21 22 23 23 24 26 26 27 27 28 28 28 28 28 29 29 28 28 28 29 29 30 31 31 33 34 34 35 35 37 37 35
21 19 20 20 21 22 22 21 20 19 20 22 23 24 26 26 27 28 28 29 29 29 28 29 29 29 29 29 29 30 31 31 32 33 34 34 35 37 38 39 39 42 42
29 26 23 21 20 19 18 17 18 20 22 24 25 25 26 27 27 28 29 29 30 30 31 30 30 30 30 31 32 33 34 34 34 36 39 41 42 41 39 39 40 40 42
26 24 21 19 16 15 16 18 20 20 20 21 22 23 25 26 28 29 30 31 31 31 31 31 31 32 32 33 34 35 36 36 39 43 42 38 36 35 36 35 36 37 40
20 17 14 12 13 15 15 15 15 16 18 20 22 25 26 28 29 30 31 31 32 32 32 32 32 32 33 34 35 36 38 41 44 41 38 34 35 33 34 35 36 38 40
12 10 9 10 9 9 11 14 17 19 21 23 25 26 27 28 29 30 31 32 32 32 32 32 32 33 35 36 38 41 43 43 42 39 34 31 32 34 36 37 38 40 39
7 6 5 5 8 11 14 18 21 22 23 24 26 27 28 29 29 30 32 32 32 31 31 32 33 34 35 38 41 44 44 42 39 32 31 33 35 38 40 42 42 42 41
6 5 5 8 12 16 18 19 22 24 25 25 26 27 28 30 31 32 30 28 28 29 31 31 33 35 38 40 43 44 44 40 34 32 33 36 40 42 44 46 44 43 42
4 5 10 14 17 18 20 21 22 22 21 22 24 26 27 28 27 26 26 27 28 29 31 32 34 37 39 41 43 45 43 39 38 38 38 41 44 45 46 45 45 43 42
7 11 16 18 20 19 18 17 17 18 18 19 21 22 23 25 27 28 28 28 29 30 32 34 37 41 42 43 44 40 40 42 43 45 46 49 48 47 45 44 43 41 40
13 18 19 19 17 16 16 15 15 16 18 19 20 23 25 27 27 28 28 29 31 33 35 37 39 43 44 45 41 43 45 48 50 52 54 54 51 45 43 43 41 40 39
19 19 18 16 16 16 15 16 17 18 20 21 23 24 26 27 28 28 30 32 34 35 38 41 44 46 46 43 46 49 53 56 58 58 56 52 48 42 41 42 42 41 39
19 18 17 16 16 16 17 18 19 20 20 22 24 26 26 27 29 31 32 34 36 39 42 44 45 46 51 53 56 59 61 61 58 54 48 43 41 39 38 40 41 42 40
18 16 16 16 17 17 18 18 19 21 22 23 25 26 27 28 31 33 35 38 40 42 45 48 51 53 54 56 55 54 54 52 51 47 43 38 36 37 37 39 40 40 41
17 17 17 17 18 18 19 19 20 22 23 24 25 27 28 31 34 36 38 41 44 47 49 50 51 52 54 55 55 54 51 48 46 44 41 39 37 37 36 38 38 39 39
17 17 17 18 19 19 19 20 22 23 24 24 26 28 31 34 37 40 42 43 44 46 48 50 51 50 50 50 49 48 47 46 46 43 41 40 40 40 40 39 39 38 39
18 18 19 19 19 20 21 23 24 24 24 25 28 32 35 37 39 40 42 44 45 47 47 45 44 43 43 44 45 44 43 41 40 40 40 40 40 38 38 37 37 37 38
19 19 19 20 20 22 23 24 24 24 26 29 33 35 37 39 40 42 42 44 44 43 41 41 41 42 43 43 43 42 40 36 34 34 35 34 36 36 36 35 35 35 35
19 19 20 20 22 23 24 24 25 27 30 33 35 37 38 40 41 42 43 41 39 37 36 37 39 40 41 42 42 41 39 35 29 29 32 32 35 35 32 31 30 29 29
Wind_Direction
211 210 211 218 226 233 241 247 251 255 264 271 279 285 288 293 297 304 308 305 304 304 308 312 312 311 311 312 314 314 315 314 314 312 310 308 305 302 300 298 294 292 292
210 211 215 222 229 234 238 245 251 258 266 274 280 283 286 291 299 303 301 301 303 308 308 308 307 309 312 315 317 317 316 315 314 311 308 302 300 298 296 293 292 291 288
213 217 223 228 233 237 239 244 253 262 269 275 279 281 287 293 297 297 299 305 304 301 301 303 307 311 312 312 313 313 313 311 310 309 307 304 299 296 296 297 296 293 292
212 218 221 226 232 236 242 250 256 264 270 274 278 284 289 291 292 299 301 295 294 295 300 304 305 306 308 310 311 311 312 311 309 307 306 303 301 299 293 294 298 297 297
216 221 225 230 235 241 248 257 263 265 270 276 281 286 287 290 296 293 289 288 292 297 299 301 304 307 310 312 314 313 312 310 308 306 305 305 304 303 301 296 292 293 292
218 222 226 231 239 248 255 257 262 268 274 281 285 284 290 291 287 284 286 292 295 298 300 302 304 307 311 313 314 313 312 310 307 306 305 303 301 299 299 296 291 290 287
225 229 233 238 244 248 252 259 265 271 277 280 283 286 283 282 284 288 291 293 295 297 299 301 304 308 311 312 312 311 310 308 307 307 305 303 301 300 299 300 300 296 291
223 232 237 239 242 249 257 262 268 272 275 279 278 278 282 286 287 290 292 294 295 297 300 302 304 306 308 308 308 308 307 306 306 305 304 303 303 304 303 302 302 300 298
235 233 234 238 247 253 257 262 266 269 269 270 276 282 285 288 291 292 293 295 296 297 298 299 301 303 304 304 305 306 307 307 307 305 304 304 303 303 301 300 299 299 299
238 240 238 240 244 251 256 258 262 267 276 281 285 288 289 290 291 292 293 294 296 297 298 299 299 300 301 302 304 305 305 305 305 305 303 300 299 299 298 299 300 301 300
215 222 228 238 246 246 256 267 275 281 286 291 292 292 293 293 293 294 295 295 295 296 295 297 298 299 300 301 302 302 303 303 303 303 304 303 299 299 299 300 301 302 302
202 213 219 227 249 263 272 282 291 294 295 297 298 298 297 297 298 297 295 295 294 294 296 296 297 297 298 298 300 301 301 301 302 304 302 300 299 299 299 299 301 302 301
185 204 230 250 266 281 289 291 294 297 298 298 299 300 301 298 297 295 295 294 294 294 294 294 295 297 297 298 299 300 301 301 304 304 302 301 300 299 299 300 300 298 298
194 209 232 263 278 287 294 298 298 297 297 299 299 298 297 297 296 297 297 296 295 293 293 294 294 295 296 297 298 300 300 301 300 300 299 297 298 300 301 302 302 300 299
187 208 244 274 290 297 297 295 295 298 298 298 298 299 299 300 299 295 294 296 296 294 293 292 292 293 295 296 297 298 299 298 295 295 296 299 301 303 303 302 300 298 298
213 266 293 300 300 299 299 297 295 297 301 300 299 302 298 294 296 302 303 300 295 292 290 290 292 293 295 296 297 297 295 291 292 293 297 300 302 302 301 299 297 297 297
271 295 303 304 304 302 301 302 305 306 305 304 302 300 303 308 308 306 303 298 295 295 295 295 295 296 297 297 298 294 291 291 292 296 300 302 302 300 297 294 292 293 293
293 305 307 306 305 305 308 309 312 313 314 313 311 311 309 305 303 300 299 299 300 297 295 294 295 296 297 297 294 292 292 293 294 298 301 300 299 297 292 289 289 289 290
301 305 306 306 307 310 313 316 315 316 318 316 310 306 304 302 300 301 303 300 298 298 297 297 298 299 300 300 298 297 296 296 297 299 298 296 295 293 288 287 289 290 291
303 305 306 308 309 315 314 313 316 315 312 311 308 304 302 303 305 304 303 302 302 302 301 302 303 304 303 303 300 299 298 297 296 295 296 295 292 288 286 287 288 289 291
301 301 304 308 308 308 311 312 316 315 310 306 304 304 305 305 304 304 305 305 304 304 304 304 305 304 304 304 303 302 301 300 298 297 297 294 290 287 287 287 289 290 291
297 297 300 304 306 309 311 312 310 307 306 304 303 305 305 305 306 307 307 306 306 307 307 307 308 308 307 307 306 304 301 299 297 296 294 293 291 290 290 289 290 290 291
292 298 302 305 306 307 306 306 306 307 306 305 304 305 307 308 309 308 309 309 309 309 310 310 310 312 314 315 314 311 306 298 294 293 292 291 291 292 291 292 291 291 291
296 300 302 303 302 301 303 307 308 308 306 305 308 310 311 311 311 311 312 312 313 312 312 314 316 320 324 328 327 323 317 310 301 294 291 290 290 290 291 291 290 292 292
295 298 298 298 298 301 305 306 306 307 309 311 312 312 312 313 313 314 315 315 316 316 317 320 323 326 327 328 327 325 323 318 312 308 305 306 299 295 294 293 292 293 293
294 295 296 296 297 300 303 307 311 312 312 312 312 313 314 315 316 317 318 318 318 318 320 321 323 323 323 325 324 324 321 318 315 306 299 293 293 302 301 299 299 297 296
Height
3125 3129 3132 3134 3136 3139 3141 3142 3143 3143 3144 3144 3144 3143 3142 3142 3140 3139 3137 3134 3132 3130 3128 3126 3124 3121 3118 3115 3113 3110 3107 3104 3103 3102 3098 3096 3094 3093 3090 3089 3087 3085 3084
3121 3125 3128 3130 3133 3136 3137 3138 3139 3139 3139 3139 3139 3138 3138 3137 3136 3134 3131 3129 3127 3126 3124 3121 3118 3116 3114 3111 3109 3107 3103 3100 3098 3097 3095 3093 3091 3088 3086 3084 3082 3080 3078
3117 3121 3124 3127 3130 3132 3134 3134 3134 3135 3135 3135 3134 3133 3133 3132 3131 3128 3126 3125 3123 3121 3118 3116 3114 3112 3109 3106 3103 3100 3097 3094 3091 3089 3087 3085 3085 3084 3082 3080 3078 3076 3074
3113 3117 3120 3123 3126 3128 3129 3130 3130 3130 3130 3130 3129 3129 3128 3127 3125 3124 3122 3120 3117 3115 3113 3111 3109 3106 3103 3100 3098 3095 3092 3089 3086 3083 3081 3079 3078 3076 3077 3076 3074 3072 3070
3109 3112 3116 3119 3121 3123 3124 3125 3125 3125 3125 3124 3124 3123 3122 3120 3119 3118 3115 3113 3112 3110 3108 3106 3104 3102 3099 3096 3093 3090 3087 3084 3082 3079 3077 3074 3071 3069 3067 3068 3069 3067 3064
3104 3107 3111 3114 3117 3119 3120 3120 3120 3119 3119 3118 3117 3116 3116 3115 3113 3111 3110 3109 3107 3106 3104 3101 3099 3096 3093 3090 3088 3084 3082 3079 3076 3074 3071 3069 3066 3063 3059 3057 3057 3055 3057
3100 3104 3108 3111 3113 3113 3114 3115 3114 3114 3113 3112 3111 3111 3110 3108 3107 3107 3105 3104 3102 3100 3098 3096 3094 3092 3089 3085 3082 3079 3077 3074 3071 3069 3066 3062 3059 3056 3053 3049 3048 3046 3046
3097 3100 3103 3105 3107 3108 3109 3109 3109 3108 3107 3107 3107 3105 3104 3104 3103 3101 3100 3098 3096 3094 3092 3091 3088 3085 3083 3080 3077 3075 3071 3068 3065 3063 3060 3057 3053 3049 3046 3042 3039 3037 3037
3093 3096 3098 3100 3102 3103 3103 3103 3103 3103 3102 3102 3101 3100 3100 3099 3098 3097 3095 3093 3091 3088 3086 3084 3082 3079 3077 3074 3071 3069 3066 3063 3059 3056 3053 3050 3046 3042 3038 3035 3031 3026 3023
3088 3091 3093 3095 3097 3098 3099 3099 3099 3099 3098 3098 3097 3097 3096 3094 3092 3091 3089 3086 3084 3082 3080 3077 3074 3072 3070 3068 3065 3063 3060 3057 3053 3050 3046 3042 3038 3034 3029 3026 3022 3018 3013
3083 3087 3089 3092 3094 3095 3096 3096 3095 3095 3094 3093 3092 3091 3089 3088 3086 3084 3082 3080 3077 3075 3073 3070 3069 3066 3063 3061 3058 3055 3053 3050 3046 3041 3037 3033 3029 3025 3021 3018 3016 3011 3005
3081 3085 3088 3090 3091 3092 3092 3091 3091 3090 3089 3088 3087 3085 3084 3082 3080 3078 3075 3072 3070 3068 3066 3064 3062 3059 3056 3054 3050 3048 3045 3040 3035 3031 3028 3025 3020 3018 3014 3010 3007 3003 2998
3081 3084 3085 3087 3088 3088 3088 3087 3086 3085 3084 3082 3081 3080 3078 3076 3073 3071 3068 3066 3064 3061 3059 3057 3054 3051 3049 3046 3042 3038 3035 3030 3026 3022 3018 3015 3012 3010 3006 3002 2997 2993 2990
3079 3081 3083 3084 3084 3084 3083 3082 3080 3079 3078 3077 3076 3074 3072 3069 3067 3064 3062 3059 3057 3054 3051 3049 3047 3044 3041 3037 3033 3029 3024 3020 3016 3013 3009 3006 3003 3000 2996 2992 2989 2985 2981
3078 3080 3081 3081 3081 3080 3079 3077 3076 3074 3073 3071 3069 3067 3064 3062 3060 3058 3055 3052 3049 3046 3044 3042 3039 3035 3031 3028 3023 3019 3015 3011 3007 3004 3001 2998 2994 2990 2986 2982 2979 2975 2971
3076 3077 3077 3077 3076 3075 3073 3072 3070 3068 3066 3064 3062 3060 3058 3056 3053 3049 3047 3044 3042 3039 3037 3033 3030 3027 3022 3019 3014 3009 3004 3001 2997 2994 2992 2989 2984 2980 2975 2971 2967 2964 2959
3073 3073 3073 3072 3070 3069 3067 3065 3064 3062 3060 3058 3056 3054 3051 3048 3045 3043 3041 3038 3035 3032 3029 3026 3022 3018 3013 3009 3004 3000 2994 2990 2987 2983 2980 2976 2973 2967 2963 2960 2956 2954 2950
3070 3069 3068 3066 3065 3063 3061 3060 3058 3056 3054 3052 3049 3046 3045 3042 3040 3037 3034 3031 3028 3024 3021 3017 3013 3008 3003 2999 2993 2989 2985 2981 2976 2971 2966 2961 2957 2955 2949 2946 2944 2943 2941
3065 3064 3062 3061 3059 3058 3056 3054 3052 3050 3048 3046 3044 3042 3040 3037 3034 3031 3027 3024 3021 3017 3013 3008 3004 2998 2993 2990 2984 2978 2973 2968 2963 2958 2952 2946 2943 2941 2936 2933 2931 2929 2929
3060 3059 3057 3056 3054 3052 3051 3049 3048 3046 3044 3042 3040 3037 3034 3031 3028 3025 3021 3018 3013 3008 3004 2999 2994 2989 2983 2977 2971 2965 2956 2950 2946 2942 2937 2934 2929 2926 2924 2921 2918 2916 2916
3055 3054 3052 3050 3049 3048 3046 3045 3043 3041 3039 3037 3034 3031 3028 3025 3022 3018 3014 3009 3005 3000 2995 2989 2984 2978 2970 2962 2955 2948 2940 2934 2929 2926 2923 2921 2917 2914 2912 2910 2907 2905 2902
3050 3049 3048 3046 3044 3043 3042 3040 3038 3036 3034 3032 3028 3026 3023 3019 3015 3010 3005 3000 2994 2989 2983 2976 2971 2965 2957 2949 2942 2935 2927 2921 2915 2913 2910 2908 2905 2903 2901 2899 2896 2894 2891
3046 3044 3043 3041 3039 3038 3037 3036 3034 3032 3029 3026 3023 3019 3015 3011 3006 3001 2996 2991 2985 2978 2971 2964 2958 2951 2944 2936 2929 2922 2916 2910 2904 2901 2898 2895 2893 2890 2888 2886 2885 2882 2880
3040 3039 3037 3036 3035 3034 3033 3031 3029 3026 3023 3020 3016 3012 3008 3003 2998 2992 2986 2980 2974 2967 2959 2953 2946 2940 2933 2924 2916 2910 2904 2899 2894 2890 2886 2884 2882 2880 2877 2875 2873 2871 2868
3034 3033 3032 3031 3030 3029 3027 3025 3022 3019 3015 3012 3007 3003 2999 2994 2988 2983 2976 2971 2964 2956 2948 2942 2935 2927 2921 2914 2906 2900 2893 2888 2884 2880 2876 2873 2870 2867 2866 2864 2861 2859 2857
3029 3028 3027 3027 3025 3023 3021 3018 3015 3012 3008 3004 3000 2995 2991 2986 2980 2974 2969 2963 2956 2949 2942 2935 2928 2921 2913 2906 2899 2892 2886 2881 2877 2873 2869 2865 2861 2857 2855 2852 2851 2849 2846